This demonstration page uses our WeatherBlox Daily Observations layout. Learn more.

Left ArrowRight Arrow

Hourly Observations for December 2, 2019

Temp ( °F °C ) Dew Point ( °F °C ) Humidity (%) Winds ( mph kmh ) Pressure ( in mb ) Visibility ( mi km ) Precip ( " mm )
12:38 am 00:38 Cloudy with Light Rain 46 7.8 44 6.7 93 93 NNW 3 6 30.02 1017 5 8 0.02 0.51
12:53 am 00:53 Cloudy with Light Rain 46 7.8 44 6.7 93 93 NW 5 7 30.01 1016 4 6 0.03 0.76
1:05 am 01:05 Cloudy with Light Rain 46 7.8 44 6.7 93 93 NNW 3 6 30.02 1017 5 8 0.00 0.00
1:53 am 01:53 Cloudy with Light Rain 46 7.8 44 6.7 93 93 NNW 3 6 30.02 1017 4 6 0.05 1.27
2:08 am 02:08 Cloudy with Light Rain 46 7.8 44 6.7 93 93 Calm 30.04 1017 3 5 0.00 0.00
2:16 am 02:16 Cloudy with Light Rain 46 7.8 44 6.7 93 93 Calm 30.03 1017 3 5 0.02 0.51
2:42 am 02:42 Cloudy with Light Rain 46 7.8 45 7.2 96 96 Calm 30.04 1017 3 5 0.05 1.27
2:53 am 02:53 Cloudy with Light Rain 46 7.8 45 7.2 96 96 Calm 30.03 1017 3 5 0.05 1.27
3:05 am 03:05 Cloudy with Light Rain 46 7.8 44 6.7 93 93 Calm 30.05 1018 3 4 0.02 0.51
3:11 am 03:11 Cloudy with Rain 46 7.8 44 6.7 93 93 Calm 30.05 1018 3 5 0.03 0.76
3:20 am 03:20 Cloudy with Light Rain 46 7.8 44 6.7 93 93 Calm 30.05 1018 4 6 0.04 1.02
3:30 am 03:30 Cloudy with Light Rain 46 7.8 44 6.7 93 93 Calm 30.05 1018 3 5 0.05 1.27
3:48 am 03:48 Cloudy with Light Rain 46 8 45 7 93 93 NNW 3 6 30.05 1018 3 4 0.07 1.78
3:53 am 03:53 Cloudy with Light Rain 46 7.8 44 6.7 93 93 NNW 3 6 30.04 1017 3 5 0.08 2.03
4:18 am 04:18 Cloudy with Light Rain 46 7.8 45 7.2 96 96 N 5 7 30.05 1018 3 4 0.02 0.51
4:22 am 04:22 Cloudy with Light Rain 47 8.3 45 7.2 93 93 N 5 7 30.06 1018 3 5 0.02 0.51
4:53 am 04:53 Cloudy with Light Rain 47 8.3 45 7.2 93 93 NNW 3 6 30.05 1018 4 6 0.05 1.27
5:13 am 05:13 Cloudy with Light Rain 47 8.3 45 7.2 93 93 NW 3 6 30.06 1018 3 4 0.01 0.25
5:22 am 05:22 Cloudy with Light Rain 47 8.3 45 7.2 93 93 NNW 3 6 30.06 1018 3 4 0.02 0.51
5:34 am 05:34 Cloudy with Light Rain 47 8.3 45 7.2 93 93 N 7 11 30.06 1018 3 5 0.04 1.02
5:53 am 05:53 Cloudy with Mist and Fog 47 8.3 45 7.2 93 93 N 7 11 30.06 1018 5 8 0.04 1.02
6:24 am 06:24 Cloudy with Light Rain 47 8.3 45 7.2 93 93 N 7 11 30.08 1019 5 8 0.02 0.51
6:53 am 06:53 Cloudy with Light Rain 47 8.3 45 7.2 93 93 NNW 5 7 30.08 1019 4 6 0.03 0.76
7:53 am 07:53 Cloudy with Light Rain 47 8.3 45 7.2 93 93 NNW 5 7 30.11 1020 3 4 0.04 1.02
8:07 am 08:07 Cloudy with Light Rain 47 8.3 45 7.2 93 93 N 6 9 30.12 1020 3 5 0.01 0.25
8:20 am 08:20 Cloudy with Light Rain 47 8.3 46 7.8 97 97 N 6 9 30.13 1020 2 3 0.02 0.51
8:33 am 08:33 Cloudy with Light Rain 47 8.3 46 7.8 97 97 N 5 7 30.14 1021 2 3 0.03 0.76
8:44 am 08:44 Cloudy with Light Rain 48 8.9 46 7.8 93 93 N 5 7 30.14 1021 3 4 0.04 1.02
8:53 am 08:53 Cloudy with Light Rain 48 8.9 46 7.8 93 93 N 5 7 30.13 1020 2 3 0.05 1.27
9:00 am 09:00 Cloudy with Light Rain 48 8.9 46 7.8 93 93 N 5 7 30.15 1021 3 4 0.00 0.00
9:23 am 09:23 Cloudy with Light Rain 48 8.9 46 7.8 93 93 N 5 7 30.16 1021 3 5 0.01 0.25
9:35 am 09:35 Cloudy with Mist and Fog 48 8.9 46 7.8 93 93 N 3 6 30.16 1021 3 5 0.01 0.25
9:53 am 09:53 Cloudy with Mist and Fog 49 9.4 47 8.3 93 93 N 5 7 30.16 1021 3 5 0.01 0.25
10:06 am 10:06 Cloudy with Light Rain 49 9.4 47 8.3 93 93 N 6 9 30.17 1022 2 3 0.01 0.25
10:21 am 10:21 Cloudy with Mist and Fog 49 9.4 47 8.3 93 93 NNW 6 9 30.18 1022 3 5 0.02 0.51
10:28 am 10:28 Cloudy with Light Rain 49 9.4 47 8.3 93 93 N 6 9 30.18 1022 3 4 0.02 0.51
10:53 am 10:53 Cloudy with Mist and Fog 50 10 48 8.9 93 93 N 8 13 30.16 1022 3 4 0.03 0.76
11:08 am 11:08 Cloudy with Mist and Fog 50 10 48 8.9 93 93 N 10 17 30.18 1022 4 6 0.00 0.00
11:53 am 11:53 Cloudy with Mist and Fog 51 10.6 48 8.9 89 89 N 7 11 30.16 1021 4 6 0.00 0.00
12:00 pm 12:00 Cloudy with Mist and Fog 51 10.6 49 9.4 92 92 N 7 11 30.17 1022 3 5 0.00 0.00
12:08 pm 12:08 Cloudy with Mist and Fog 51 10.6 48 8.9 89 89 N 7 11 30.17 1022 4 6 0.00 0.00
12:53 pm 12:53 Cloudy with Mist and Fog 51 10.6 49 9.4 92 92 N 6 9 30.14 1021 4 6 0.00 0.00
1:06 pm 13:06 Cloudy with Mist and Fog 51 10.6 49 9.4 92 92 NNW 3 6 30.16 1021 4 6 0.00 0.00
1:19 pm 13:19 Cloudy with Mist and Fog 51 10.6 49 9.4 92 92 NNW 5 7 30.15 1021 3 5 0.01 0.25
1:37 pm 13:37 Cloudy with Mist and Fog 51 10.6 49 9.4 92 92 NNW 6 9 30.15 1021 3 4 0.01 0.25
1:53 pm 13:53 Cloudy with Mist and Fog 51 10.6 49 9.4 92 92 NNW 6 9 30.13 1020 3 4 0.01 0.25
1:56 pm 13:56 Cloudy with Mist and Fog 51 10.6 49 9.4 92 92 NNW 5 7 30.15 1021 3 5 0.00 0.00
2:11 pm 14:11 Cloudy with Mist and Fog 51 10.6 49 9.4 92 92 undefined N/A 30.14 1021 4 6 0.00 0.00
2:53 pm 14:53 Cloudy 52 11.1 49 9.4 89 89 NNW 6 9 30.13 1020 10 16 0.00 0.00
3:53 pm 15:53 Cloudy 52 11.1 50 10 93 93 WNW 5 7 30.13 1020 9 14 0.00 0.00
4:53 pm 16:53 Cloudy 52 11.1 50 10 93 93 Calm 30.14 1021 9 14 0.00 0.00
5:53 pm 17:53 Cloudy with Mist and Fog 52 11.1 50 10 93 93 NW 3 6 30.16 1021 5 8 0.01 0.25
6:53 pm 18:53 Cloudy 52 11.1 50 10 93 93 NNW 3 6 30.17 1022 10 16 0.00 0.00
7:53 pm 19:53 Cloudy 51 10.6 50 10 96 96 Calm 30.18 1022 7 11 0.00 0.00
8:53 pm 20:53 Cloudy 51 10.6 49 9.4 92 92 WNW 5 7 30.18 1022 8 13 0.00 0.00
9:53 pm 21:53 Cloudy 51 10.6 49 9.4 92 92 NNW 3 6 30.19 1022 10 16 0.00 0.00
10:53 pm 22:53 Cloudy 51 10.6 49 9.4 92 92 NNW 3 6 30.19 1022 10 16 0.01 0.25
11:53 pm 23:53 Cloudy 51 10.6 49 9.4 92 92 Calm 30.19 1023 10 16 0.00 0.00

Powered by AerisWeather